Tracking 18980 objects as of 21-Feb-2018
HD Live streaming from Space Station
objects crossing your sky now

RADUGA 2

Track RADUGA 2 now!
RADUGA 2 is classified as:


NORAD ID: 9416
Int'l Code: 1976-092A
Perigee: 35,663.4 km
Apogee: 35,918.2 km
Inclination: 10.7 °
Period: 1,435.9 minutes
Semi major axis: 42161 km
RCS: 0.1428 m2 (medium)
Launch date: September 11, 1976
Source: Commonwealth of Independent States (former USSR) (CIS)
Launch site: TYURATAM MISSILE AND SPACE COMPLEX (TTMTR)
aabbcc
Your satellite tracking list
Your tracking list is empty




NASA's NSSDC Master Catalog

Two Line Element Set (TLE):
1 09416U 76092A   18051.74457437  .00000003  00000-0  00000+0 0  9992
2 09416  10.6725 311.0418 0030212 312.2518 219.6556  1.00282359 98866
Source of the keplerian elements: AFSPC